Location: Unspecified
(0.0000°N, 0.0000°E)
Time: 21:35:33
(UTC+02:00)

Cosmos 1954 Rocket - Visible Passes

Search period start: 21 August 2017 00:00
Search period end: 31 August 2017 00:00
Orbit: 752 x 782 km, 74.0° (Epoch: 21 August)

Date Brightness Start Highest point End Pass type
(mag) Time Alt. Az. Time Alt. Az. Time Alt. Az.
21 Aug 6.6 22:47:27 10° NW 22:48:26 15° NW 22:48:26 15° NW visible
22 Aug 5.2 22:09:47 10° NNW 22:12:45 34° NNW 22:12:45 34° NNW visible
23 Aug 4.3 21:32:44 10° N 21:37:13 46° NE 21:37:13 46° NE visible
24 Aug 5.1 20:56:23 10° NNE 21:00:35 24° ENE 21:01:51 22° E visible
24 Aug 6.3 22:38:31 10° NW 22:42:11 20° W 22:42:11 20° W visible
25 Aug 5.1 22:00:07 10° NNW 22:05:04 41° WSW 22:07:02 29° SSW visible
26 Aug 4.0 21:22:31 10° NNW 21:27:49 86° WSW 21:32:08 16° S visible
27 Aug 4.3 20:45:31 10° N 20:50:34 45° ENE 20:55:36 10° SSE visible
28 Aug 6.4 21:51:05 10° NW 21:55:02 21° WSW 21:59:00 10° SSW visible
29 Aug 5.2 21:12:46 10° NNW 21:17:46 44° WSW 21:22:47 10° S visible
30 Aug 4.0 20:35:14 10° NNW 20:40:32 89° ENE 20:45:49 10° SSE visible
